Taunton, MA

11:48 PM EDT on September 19, 2019 (GMT -0400)
Taunton Municipal

Weather History for KTAN - August, 2019

Change the Weather History Date:

Monday, August 19, 2019

  Actual Average Record
Temperature  
Mean Temperature 80 °F -  
Max Temperature 93 °F 80 °F 95 °F (2002)
Min Temperature 69 °F 56 °F 43 °F (1953)
Cooling Degree Days 15    
Growing Degree Days 30 (Base 50)    
Moisture  
Dew Point 71 °F    
Average Humidity 76    
Maximum Humidity 91    
Minimum Humidity 52    
Precipitation  
Precipitation 0.03 in - - ()
Sea Level Pressure  
Sea Level Pressure 29.95 in    
Wind  
Wind Speed 5 mph (SW)    
Max Wind Speed 13 mph    
Max Gust Speed 21 mph    
Visibility 10 miles    
Events Rain , Thunderstorm    
Averages and records for this station are not official NWS values.
T = Trace of Precipitation, MM = Missing Value Source: NWS Daily Summary

Daily Weather History Graph

Daily Weather History Graph

Search for Another Location

Airport or City:

Astronomy

Aug. 19, 2019 Rise Set
Actual Time 5:56 AM EDT 7:38 PM EDT
Civil Twilight 5:26 AM EDT 8:08 PM EDT
Nautical Twilight 4:50 AM EDT 8:44 PM EDT
Astronomical Twilight 4:11 AM EDT 9:22 PM EDT
Moon 9:55 PM EDT (8/19) 9:37 AM EDT (8/19)
Length of Visible Light 14h 41m
Length of Day
13h 42m
Waning Gibbous, 85% of the Moon is Illuminated
Aug 19
Waning Gibbous
Aug 23
Last Quarter
Aug 30
New
Sep 5
First Quarter
Sep 14
Full

Hourly Weather History & Observations

Time (EDT) Temp. Heat Index Dew Point Humidity Pressure Visibility Wind Dir Wind Speed Gust Speed Precip Events Conditions
12:52 AM 75.9 °F - 73.0 °F 91% 29.94 in 10.0 mi Variable 3.5 mph - N/A   Partly Cloudy
1:03 AM 77.0 °F - 73.0 °F 88% 29.94 in 10.0 mi SSE 4.6 mph - N/A   Mostly Cloudy
1:30 AM 77.0 °F - 73.0 °F 88% 29.93 in 10.0 mi South 5.8 mph - N/A   Mostly Cloudy
1:52 AM 77.0 °F - 73.0 °F 88% 29.94 in 10.0 mi South 5.8 mph - N/A   Overcast
2:49 AM 78.8 °F - 73.4 °F 83% 29.95 in 10.0 mi South 5.8 mph - N/A   Overcast
2:52 AM 78.1 °F - 73.0 °F 84% 29.94 in 10.0 mi Variable 5.8 mph - N/A   Overcast
3:52 AM 78.1 °F - 73.0 °F 84% 29.95 in 10.0 mi South 6.9 mph - N/A   Overcast
4:29 AM 78.1 °F - 73.0 °F 84% 29.96 in 10.0 mi Variable 6.9 mph - N/A   Overcast
4:52 AM 77.0 °F - 72.0 °F 84% 29.96 in 10.0 mi WSW 4.6 mph - N/A   Overcast
5:22 AM 75.9 °F - 72.0 °F 87% 29.97 in 10.0 mi SSW 3.5 mph - N/A   Scattered Clouds
5:52 AM 75.0 °F - 71.1 °F 87% 29.97 in 10.0 mi SW 3.5 mph - N/A   Clear
6:52 AM 75.9 °F - 72.0 °F 87% 29.99 in 9.0 mi South 3.5 mph - N/A   Partly Cloudy
7:52 AM 78.1 °F - 72.0 °F 81% 29.99 in 10.0 mi Calm Calm - N/A   Mostly Cloudy
8:52 AM 82.0 °F 85.9 °F 70.0 °F 67% 29.97 in 10.0 mi Variable 4.6 mph - N/A   Clear
9:52 AM 86.0 °F 89.4 °F 68.0 °F 55% 29.97 in 10.0 mi SSW 6.9 mph - N/A   Partly Cloudy
10:52 AM 86.0 °F 90.7 °F 70.0 °F 59% 29.97 in 10.0 mi SSW 5.8 mph - N/A   Scattered Clouds
11:52 AM 87.1 °F 92.8 °F 71.1 °F 59% 29.97 in 10.0 mi WSW 6.9 mph - N/A   Mostly Cloudy
12:52 PM 91.0 °F 99.3 °F 73.0 °F 55% 29.95 in 10.0 mi SW 9.2 mph 17.3 mph N/A   Clear
1:52 PM 91.9 °F 99.5 °F 72.0 °F 52% 29.94 in 10.0 mi SSW 8.1 mph - N/A   Clear
2:52 PM 91.0 °F 100.4 °F 73.9 °F 57% 29.92 in 10.0 mi South 9.2 mph - N/A   Partly Cloudy
3:52 PM 90.0 °F 97.9 °F 73.0 °F 57% 29.91 in 10.0 mi SW 8.1 mph 17.3 mph N/A   Clear
4:52 PM 86.0 °F 92.2 °F 72.0 °F 63% 29.91 in 10.0 mi SSW 12.7 mph 18.4 mph N/A   Clear
5:01 PM 86.0 °F 92.2 °F 72.0 °F 63% 29.92 in 10.0 mi SW 11.5 mph 20.7 mph N/A Thunderstorm Clear
5:33 PM 77.0 °F - 69.1 °F 76% 29.92 in 10.0 mi Calm Calm - 0.01 in   Mostly Cloudy
5:52 PM 75.9 °F - 71.1 °F 85% 29.92 in 10.0 mi WSW 3.5 mph - 0.01 in   Mostly Cloudy
6:31 PM 79.0 °F - 66.9 °F 66% 29.93 in 10.0 mi SW 6.9 mph - 0.00 in Rain , Thunderstorm Light Rain
6:52 PM 79.0 °F - 66.0 °F 64% 29.94 in 10.0 mi Variable 5.8 mph 17.3 mph 0.00 in Rain Light Rain
7:09 PM 75.9 °F - 68.0 °F 76% 29.95 in 10.0 mi WSW 9.2 mph 16.1 mph 0.01 in Rain , Thunderstorm Light Rain
7:38 PM 75.0 °F - 69.1 °F 82% 29.94 in 10.0 mi SW 8.1 mph - 0.01 in Rain , Thunderstorm Light Thunderstorms and Rain
7:52 PM 73.9 °F - 68.0 °F 82% 29.94 in 10.0 mi SW 6.9 mph - 0.02 in Rain Light Rain
8:52 PM 73.0 °F - 68.0 °F 84% 29.94 in 10.0 mi Variable 3.5 mph - 0.00 in   Clear
9:52 PM 72.0 °F - 68.0 °F 87% 29.96 in 10.0 mi West 5.8 mph - N/A   Clear
10:52 PM 71.1 °F - 68.0 °F 90% 29.96 in 10.0 mi WSW 3.5 mph - N/A   Clear
11:52 PM 69.1 °F - 66.0 °F 90% 29.96 in 3.0 mi Calm Calm - N/A   Clear
11:59 PM 69.1 °F - 66.0 °F 90% 29.96 in 2.0 mi Calm Calm - N/A   Clear